Regional Weather Roundup
Issued by NWS

Home | Current Version | Previous Version | Graphics & Text | Print | Product List | Glossary On
Versions: 1 2 3 4 5 6 7 8 9 10 11 12 13 14 15 16 17 18 19 20 21 22 23 24 25 26 27 28 29 30 31 32 33 34 35 36 37 38 39 40 41 42 43 44 45 46 47 48 49 50
000
ASUS43 KLSX 020207
RWRMO

WEATHER SUMMARY FOR MISSOURI
NATIONAL WEATHER SERVICE SPRINGFIELD MO
900 PM CDT WED OCT 01 2014

NOTE: "FAIR" INDICATES FEW OR NO CLOUDS BELOW 12,000 FEET WITH NO
       SIGNIFICANT WEATHER AND/OR OBSTRUCTIONS TO VISIBILITY.
       CURRENT SKY AND/OR WEATHER CONDITIONS ARE NOT AVAILABLE FOR
       CHILLICOTHE AND FARMINGTON.

MOZ001>031-035>038-043-044-053-054-020300-
...NORTHERN AND WESTERN MISSOURI...

CITY           SKY/WX    TMP DP  RH WIND       PRES   REMARKS
KANSAS CTY INT MOCLDY    68  65  90 E13       29.73F
KANSAS C DTWN  TSTM      68  66  93 E10       29.72F FOG
LEE`S SUMMIT   MOCLDY    68  66  93 E9        29.74F THUNDER
ST JOSEPH      CLOUDY    72  67  84 E6        29.76R
CHILLICOTHE      N/A     66  65  96 SE7       29.80R
KIRKSVILLE     RAIN      67  66  97 S5        29.85R FOG

$$
MOZ066>068-077>081-088>096-101>105-020300-
...SOUTHWEST MISSOURI...

CITY           SKY/WX    TMP DP  RH WIND       PRES   REMARKS
SPRINGFIELD    PTCLDY    76  65  68 S9        29.81R
JOPLIN         PTCLDY    77  67  71 S16G24    29.76R

$$
MOZ032>034-039>042-045>050-055>058-069>072-020300-
...CENTRAL MISSOURI...

CITY           SKY/WX    TMP DP  RH WIND       PRES   REMARKS
COLUMBIA       LGT RAIN  67  65  93 NE8       29.83F
ROLLA          CLOUDY    73  61  65 NW18      29.85R
SEDALIA        CLOUDY    65  63  93 NE8       29.82R
WHITEMAN AFB   MOCLDY    66  64  94 E7        29.77S
OSAGE BEACH    CLOUDY    68  61  77 E5        29.82S

$$
MOZ051-052-059>065-020300-
...EAST CENTRAL MISSOURI...

CITY           SKY/WX    TMP DP  RH WIND       PRES   REMARKS
ST LOUIS INTL  CLOUDY    83  64  52 SE9       29.84R
SPIRIT OF STL  CLOUDY    78  65  63 CALM      29.82R
ST CHARLES     CLOUDY    71  66  84 N8        29.83R

$$
MOZ072>076-082>087-097>100-106>115-020300-
...SOUTH CENTRAL AND SOUTHEAST MISSOURI...

CITY           SKY/WX    TMP DP  RH WIND       PRES   REMARKS
CAPE GIRARDEAU PTCLDY    76  63  64 S8        29.88R
FARMINGTON     CLOUDY    75  64  69 S10       29.89R
POPLAR BLUFF   MOCLDY    72  65  78 S6        29.87S
WEST PLAINS    PTCLDY    74  67  78 S9        29.89R

$$


USA.gov is the U.S. government's official web portal to all federal, state and local government web resources and services.